This is the latest recevied weather packets stored in our database for station/object KD0RII. If no packets are shown the sender has not sent any weather packets the latest 10 day(s).
| Time | Temp. | Humidity | Pressure | Rain* | Wind** | Luminosity | Snow |
|---|---|---|---|---|---|---|---|
| 1777725530 | 2.78° C | 91% | 1023.3 hPa | 0 mm | - | 33 W/m² | - |
| 1777725227 | 2.22° C | 91% | 1023.1 hPa | 0 mm | - | 32 W/m² | - |
| 1777724924 | 1.67° C | 91% | 1023.2 hPa | 0 mm | - | 30 W/m² | - |
| 1777724620 | 1.67° C | 91% | 1022.9 hPa | 0 mm | - | 29 W/m² | - |
| 1777724319 | 1.11° C | 91% | 1023 hPa | 0 mm | - | 27 W/m² | - |
| 1777724015 | 0.56° C | 90% | 1023 hPa | 0 mm | - | 25 W/m² | - |
| 1777723713 | 0.56° C | 90% | 1022.7 hPa | 0 mm | - | 23 W/m² | - |
| 1777723409 | 0.56° C | 90% | 1022.9 hPa | 0 mm | - | 21 W/m² | - |
| 1777723106 | 0.56° C | 90% | 1022.7 hPa | 0 mm | - | 19 W/m² | - |
| 1777722803 | 0.56° C | 90% | 1022.6 hPa | 0 mm | - | 16 W/m² | - |
| 1777722500 | 0.56° C | 90% | 1022.5 hPa | 0 mm | - | 14 W/m² | - |
| 1777722197 | 0.56° C | 90% | 1022.5 hPa | 0 mm | - | 11 W/m² | - |
| 1777721894 | 0.56° C | 90% | 1022.4 hPa | 0 mm | - | 8 W/m² | - |
| 1777721591 | 0.56° C | 89% | 1022.3 hPa | 0 mm | - | 6 W/m² | - |
| 1777721289 | 0.56° C | 89% | 1022.6 hPa | 0 mm | - | 3 W/m² | - |
| 1777720986 | 0.56° C | 89% | 1022.3 hPa | 0 mm | - | 2 W/m² | - |
| 1777720683 | 1.11° C | 89% | 1022.3 hPa | 0 mm | - | 1 W/m² | - |
| 1777720381 | 1.11° C | 89% | 1022.3 hPa | 0 mm | - | 0 W/m² | - |
| 1777720078 | 1.11° C | 89% | 1022.5 hPa | 0 mm | - | 0 W/m² | - |
| 1777719776 | 1.11° C | 89% | 1022.3 hPa | 0 mm | - | 0 W/m² | - |
| 1777719474 | 1.67° C | 88% | 1022.2 hPa | 0 mm | - | 0 W/m² | - |
| 1777719170 | 1.67° C | 88% | 1022.2 hPa | 0 mm | - | 0 W/m² | - |
| 1777718868 | 1.67° C | 88% | 1022.3 hPa | 0 mm | - | 0 W/m² | - |
| 1777718565 | 2.22° C | 88% | 1022.2 hPa | 0 mm | - | 0 W/m² | - |
| 1777718263 | 2.22° C | 88% | 1022.2 hPa | 0 mm | - | 0 W/m² | - |
* Rain latest hour (hover to see other rain measurements)
** Current wind speed in m/s (hover to see current wind gust speed)